This is the latest recevied weather packets stored in our database for station/object K1BWE-1. If no packets are shown the sender has not sent any weather packets the latest 10 day(s).
| Time | Temp. | Humidity | Pressure | Rain* | Wind** | Luminosity | Snow |
|---|---|---|---|---|---|---|---|
| 1778036883 | 17.78° C | 44% | 1013.9 hPa | 0 mm | - | 0 W/m² | - |
| 1778036581 | 17.22° C | 43% | 1013.6 hPa | 0 mm | - | 0 W/m² | - |
| 1778036277 | 17.22° C | 44% | 1013.7 hPa | 0 mm | - | 0 W/m² | - |
| 1778035973 | 17.78° C | 43% | 1013.4 hPa | 0 mm | - | 0 W/m² | - |
| 1778035670 | 17.78° C | 42% | 1013.7 hPa | 0 mm | - | 0 W/m² | - |
| 1778035367 | 17.78° C | 42% | 1013.3 hPa | 0 mm | - | 0 W/m² | - |
| 1778035063 | 17.78° C | 42% | 1013.2 hPa | 0 mm | - | 0 W/m² | - |
| 1778034760 | 17.78° C | 41% | 1013.2 hPa | 0 mm | - | 0 W/m² | - |
| 1778034457 | 18.33° C | 41% | 1013.2 hPa | 0 mm | - | 0 W/m² | - |
| 1778034155 | 18.33° C | 40% | 1013 hPa | 0 mm | - | 0 W/m² | - |
| 1778033853 | 18.33° C | 39% | 1012.9 hPa | 0 mm | - | 0 W/m² | - |
| 1778033550 | 18.33° C | 38% | 1012.8 hPa | 0 mm | - | 0 W/m² | - |
| 1778033246 | 18.33° C | 38% | 1012.9 hPa | 0 mm | - | 2 W/m² | - |
| 1778032944 | 18.89° C | 37% | 1012.6 hPa | 0 mm | - | 4 W/m² | - |
| 1778032642 | 18.89° C | 35% | 1012.6 hPa | 0 mm | - | 7 W/m² | - |
| 1778032339 | 18.89° C | 36% | 1012.5 hPa | 0 mm | - | 9 W/m² | - |
| 1778032036 | 18.89° C | 34% | 1012.5 hPa | 0 mm | - | 12 W/m² | - |
| 1778031732 | 19.44° C | 33% | 1012.4 hPa | 0 mm | - | 17 W/m² | - |
| 1778031430 | 19.44° C | 32% | 1012.4 hPa | 0 mm | - | 23 W/m² | - |
| 1778031127 | 20° C | 32% | 1012.5 hPa | 0 mm | - | 32 W/m² | - |
| 1778030822 | 20° C | 33% | 1012.5 hPa | 0 mm | - | 40 W/m² | - |
| 1778030519 | 20° C | 33% | 1012.5 hPa | 0 mm | - | 47 W/m² | - |
| 1778030217 | 20.56° C | 34% | 1012.5 hPa | 0 mm | - | 55 W/m² | - |
| 1778029913 | 20.56° C | 34% | 1012.1 hPa | 0 mm | - | 78 W/m² | - |
| 1778029612 | 20.56° C | 33% | 1012.1 hPa | 0 mm | - | 92 W/m² | - |
* Rain latest hour (hover to see other rain measurements)
** Current wind speed in m/s (hover to see current wind gust speed)